CW0506 Weather Reports


Display with metric or nautical units.
time (UTC)temp
F
wind
direction
speed
MPH
gust
MPH
rain 1hr
in
rain 24hr
in
rain mn
in
humidity
%
barometer
mb
20260902224352 68 305 0.0 1.0 0.00 0.00 0.00 89 1018.8
20260902223849 68 9 0.0 0.0 0.00 0.00 0.00 85 1019.0
20260902223349 68 287 0.0 1.0 0.00 0.00 0.00 85 1018.9
20260902222843 69 275 2.0 2.0 0.00 0.00 0.00 83 1019.0
20260902222342 69 287 0.0 2.0 0.00 0.00 0.00 84 1019.1
20260902221837 69 91 0.0 4.0 0.00 0.00 0.00 82 1018.9
20260902221336 68 278 2.0 4.0 0.00 0.00 0.00 84 1018.8
20260902220832 67 335 0.0 3.0 0.00 0.00 0.00 87 1018.7
20260902220331 67 247 0.0 1.0 0.00 0.00 0.00 89 1018.9
20260902215826 67 318 0.0 2.0 0.00 0.00 0.00 90 1018.9
20260902215321 67 217 0.0 0.0 0.00 0.00 0.00 90 1019.0
20260902214817 68 156 0.0 1.0 0.00 0.00 0.00 87 1018.9
20260902214316 68 83 0.0 0.0 0.00 0.00 0.00 87 1018.9
20260902213811 69 150 0.0 1.0 0.00 0.00 0.00 87 1018.7
20260902213307 69 324 0.0 0.0 0.00 0.00 0.00 83 1018.7
20260902212805 68 357 0.0 2.0 0.00 0.00 0.00 83 1018.6
20260902212305 69 162 0.0 2.0 0.00 0.00 0.00 83 1018.4
20260902211758 69 263 0.0 3.0 0.00 0.00 0.00 81 1018.7
20260902211253 70 267 2.0 4.0 0.00 0.00 0.00 80 1018.7
20260902210748 70 272 3.0 4.0 0.00 0.00 0.00 79 1018.7
20260902210243 70 283 3.0 3.0 0.00 0.00 0.00 81 1018.4
20260902205741 71 294 3.0 5.0 0.00 0.00 0.00 77 1018.3
20260902205236 71 288 2.0 5.0 0.00 0.00 0.00 79 1018.3
20260902204731 71 307 0.0 4.0 0.00 0.00 0.00 80 1018.1
20260902204227 70 273 3.0 3.0 0.00 0.00 0.00 84 1018.0
20260902203721 70 269 3.0 4.0 0.00 0.00 0.00 84 1018.1
20260902203216 69 293 2.0 3.0 0.00 0.00 0.00 85 1018.3
20260902202710 69 217 1.0 4.0 0.00 0.00 0.00 85 1018.2
20260902202207 69 66 0.0 2.0 0.00 0.00 0.00 88 1018.4
20260902201704 69 335 0.0 2.0 0.00 0.00 0.00 90 1018.4
20260902201203 69 330 0.0 1.0 0.00 0.00 0.00 90 1018.6
20260902200658 68 73 0.0 0.0 0.00 0.00 0.00 92 1018.8
20260902200153 68 235 0.0 1.0 0.00 0.00 0.00 92 1018.7
20260902195649 68 115 0.0 0.0 0.00 0.00 0.00 91 1018.7
20260902195148 68 115 0.0 0.0 0.00 0.00 0.00 92 1018.7
20260902194647 68 115 0.0 2.0 0.00 0.00 0.00 91 1018.7
20260902194142 68 229 0.0 1.0 0.00 0.00 0.00 92 1019.0
20260902193639 68 267 0.0 2.0 0.00 0.00 0.00 92 1018.9
20260902193139 69 235 0.0 1.0 0.00 0.00 0.00 89 1018.9
20260902192637 70 224 0.0 2.0 0.00 0.00 0.00 86 1019.2
20260902192137 70 132 0.0 2.0 0.00 0.00 0.00 85 1019.0
20260902191631 71 319 1.0 3.0 0.00 0.00 0.00 82 1019.2
20260902191126 71 217 0.0 1.0 0.00 0.00 0.00 85 1018.9
20260902190621 71 325 1.0 3.0 0.00 0.00 0.00 80 1019.1
20260902190116 71 296 2.0 3.0 0.00 0.00 0.00 79 1019.0
20260902185612 71 324 1.0 2.0 0.00 0.00 0.00 84 1019.1
20260902185108 71 280 1.0 2.0 0.00 0.00 0.00 81 1018.9
20260902184603 71 286 3.0 3.0 0.00 0.00 0.00 83 1019.0
20260902184058 71 296 4.0 4.0 0.00 0.00 0.00 77 1019.2
20260902183554 72 277 2.0 5.0 0.00 0.00 0.00 78 1019.1
20260902183050 72 261 2.0 3.0 0.00 0.00 0.00 78 1019.0
20260902182546 72 347 2.0 5.0 0.00 0.00 0.00 77 1018.9
20260902182043 71 121 2.0 3.0 0.00 0.00 0.00 80 1019.0
20260902181538 71 265 1.0 4.0 0.00 0.00 0.00 83 1018.8
20260902181032 72 358 3.0 8.0 0.00 0.00 0.00 79 1019.1
20260902180526 71 145 0.0 5.0 0.00 0.00 0.00 85 1019.2
20260902180023 71 311 4.0 4.0 0.00 0.00 0.00 80 1019.1
20260902175522 71 274 4.0 4.0 0.00 0.00 0.00 82 1019.1
20260902175019 71 296 0.0 1.0 0.00 0.00 0.00 86 1019.0
20260902174515 70 295 0.0 3.0 0.00 0.00 0.00 84 1019.4
20260902174010 70 208 2.0 3.0 0.00 0.00 0.00 82 1019.6
20260902173510 70 77 2.0 3.0 0.00 0.00 0.00 82 1019.6
20260902173005 70 15 1.0 3.0 0.00 0.00 0.00 82 1019.4
20260902172504 70 73 0.0 3.0 0.00 0.00 0.00 82 1019.8
20260902171959 70 69 2.0 3.0 0.00 0.00 0.00 82 1019.7
20260902171455 70 307 0.0 3.0 0.00 0.00 0.00 85 1019.7
20260902170951 70 280 2.0 4.0 0.00 0.00 0.00 83 1019.5
20260902170450 70 280 4.0 5.0 0.00 0.00 0.00 84 1019.5
20260902165946 69 312 3.0 3.0 0.00 0.00 0.00 85 1019.7
20260902165446 69 100 2.0 6.0 0.00 0.00 0.00 84 1019.5
20260902164940 69 75 1.0 4.0 0.00 0.00 0.00 85 1019.6
20260902164436 69 70 3.0 6.0 0.00 0.00 0.00 85 1019.7
20260902163935 69 38 1.0 5.0 0.00 0.00 0.00 85 1019.7
20260902163430 69 90 2.0 6.0 0.00 0.00 0.00 84 1019.9
20260902162928 68 111 2.0 3.0 0.00 0.00 0.00 84 1019.6
20260902162423 69 290 4.0 6.0 0.00 0.00 0.00 84 1019.5
20260902161923 68 61 3.0 5.0 0.00 0.00 0.00 87 1019.3
20260902161418 68 124 2.0 4.0 0.00 0.00 0.00 88 1019.6
20260902160914 67 164 1.0 4.0 0.00 0.00 0.00 87 1019.8
20260902160410 68 87 3.0 7.0 0.00 0.00 0.00 87 1019.5
20260902155908 68 165 3.0 3.0 0.00 0.00 0.00 87 1019.8
20260902155403 67 209 2.0 4.0 0.00 0.00 0.00 87 1019.7
20260902154856 67 118 0.0 4.0 0.00 0.00 0.00 90 1020.0
20260902154352 67 334 2.0 4.0 0.00 0.00 0.00 90 1020.1
20260902153851 67 269 0.0 2.0 0.00 0.00 0.00 89 1020.2
20260902153351 67 60 0.0 3.0 0.00 0.00 0.00 89 1020.3
20260902152847 67 290 1.0 5.0 0.00 0.00 0.00 88 1020.2
20260902152343 67 311 3.0 3.0 0.00 0.00 0.00 89 1020.5
20260902151838 67 291 3.0 4.0 0.00 0.00 0.00 89 1020.5
20260902151332 66 78 3.0 4.0 0.00 0.00 0.00 90 1020.5
20260902150827 66 344 1.0 3.0 0.00 0.00 0.00 90 1020.5
20260902150324 66 253 4.0 6.0 0.00 0.00 0.00 90 1020.7
20260902145823 66 83 0.0 6.0 0.00 0.00 0.00 90 1020.6
20260902145318 66 256 1.0 3.0 0.00 0.00 0.00 92 1020.3
20260902144814 66 23 0.0 3.0 0.00 0.00 0.00 89 1020.5
20260902144309 66 307 2.0 3.0 0.00 0.00 0.00 91 1020.1
20260902143804 66 162 3.0 4.0 0.00 0.00 0.00 92 1020.2
20260902143259 65 280 2.0 3.0 0.00 0.00 0.00 94 1020.0
20260902142755 65 141 1.0 2.0 0.00 0.00 0.00 95 1020.3
20260902142245 64 207 0.0 1.0 0.00 0.00 0.00 96 1020.2
20260902141744 65 152 1.0 2.0 0.00 0.00 0.00 96 1020.3
20260902141240 65 300 2.0 4.0 0.00 0.00 0.00 94 1020.1
20260902140735 64 342 1.0 3.0 0.00 0.00 0.00 95 1020.3
20260902140230 64 76 0.0 5.0 0.00 0.00 0.00 95 1020.1
20260902135729 65 89 3.0 4.0 0.00 0.00 0.00 95 1020.1
20260902135225 64 104 1.0 5.0 0.00 0.00 0.00 95 1020.2
20260902134724 64 319 0.0 2.0 0.00 0.00 0.00 96 1020.1
20260902134220 63 89 1.0 2.0 0.00 0.00 0.00 97 1020.2
20260902133715 63 175 0.0 3.0 0.00 0.00 0.00 97 1019.9
20260902133214 63 189 0.0 2.0 0.00 0.00 0.00 98 1020.1
20260902132710 63 132 0.0 2.0 0.00 0.00 0.00 99 1020.1
20260902132205 63 335 0.0 2.0 0.00 0.00 0.00 99 1020.1
20260902131701 63 219 2.0 2.0 0.00 0.00 0.00 99 1019.7
20260902131156 63 76 0.0 3.0 0.00 0.00 0.00 99 1020.2
20260902130652 62 247 0.0 2.0 0.00 0.00 0.00 99 1020.1
20260902130147 63 242 0.0 2.0 0.00 0.00 0.00 99 1019.9
20260902125637 62 93 1.0 5.0 0.00 0.00 0.00 99 1019.8
20260902125132 62 113 0.0 2.0 0.00 0.00 0.00 99 1019.8
20260902124629 62 203 0.0 1.0 0.00 0.00 0.00 99 1019.8
20260902124129 62 80 1.0 2.0 0.00 0.00 0.00 99 1019.8
20260902123625 62 86 1.0 4.0 0.00 0.00 0.00 99 1019.7
20260902123124 62 94 2.0 2.0 0.00 0.00 0.00 99 1019.5
20260902122619 62 181 1.0 2.0 0.00 0.00 0.00 99 1019.6
20260902122114 61 37 0.0 2.0 0.00 0.00 0.00 99 1019.9
20260902121609 61 161 0.0 2.0 0.00 0.00 0.00 99 1019.7
20260902121104 61 9 0.0 1.0 0.00 0.00 0.00 99 1019.9
20260902120600 61 54 0.0 2.0 0.00 0.00 0.00 99 1020.0
20260902120056 61 33 1.0 2.0 0.00 0.00 0.00 99 1019.7
20260902115551 61 178 1.0 2.0 0.00 0.00 0.00 99 1019.8
20260902115047 61 343 0.0 2.0 0.00 0.00 0.00 99 1020.0
20260902114543 61 37 0.0 2.0 0.00 0.00 0.00 99 1020.0
20260902114042 61 273 0.0 0.0 0.00 0.00 0.00 99 1019.9
20260902113538 61 176 0.0 1.0 0.00 0.00 0.00 99 1020.1
20260902113033 61 264 0.0 1.0 0.00 0.00 0.00 99 1020.1
20260902112528 61 204 0.0 1.0 0.00 0.00 0.00 99 1020.0
20260902112025 61 189 0.0 0.0 0.00 0.00 0.00 99 1020.2
20260902111521 61 342 0.0 1.0 0.00 0.00 0.00 99 1020.1
20260902111016 61 3 1.0 2.0 0.00 0.00 0.00 99 1020.1
20260902110512 61 0 0.0 2.0 0.00 0.00 0.00 99 1019.9
20260902110008 61 348 1.0 2.0 0.00 0.00 0.00 99 1019.8
20260902105502 61 291 0.0 2.0 0.00 0.00 0.00 99 1019.9
20260902104957 61 172 0.0 3.0 0.00 0.00 0.00 99 1019.7
20260902104453 61 136 1.0 2.0 0.00 0.00 0.00 99 1019.8
20260902103953 61 73 0.0 2.0 0.00 0.00 0.00 99 1019.6
20260902103448 61 160 0.0 2.0 0.00 0.00 0.00 99 1019.8
20260902102943 61 33 0.0 2.0 0.00 0.00 0.00 99 1019.6
20260902102440 61 70 0.0 2.0 0.00 0.00 0.00 99 1019.7
20260902101936 61 166 0.0 1.0 0.00 0.00 0.00 99 1019.9
20260902101435 61 51 0.0 2.0 0.00 0.00 0.00 99 1019.8
20260902100930 61 129 0.0 2.0 0.00 0.00 0.00 99 1019.7
20260902100430 61 221 1.0 2.0 0.00 0.00 0.00 99 1019.5
20260902095925 61 34 0.0 2.0 0.00 0.00 0.00 99 1019.6
20260902095419 61 47 0.0 5.0 0.00 0.00 0.00 99 1019.5
20260902094918 61 173 0.0 3.0 0.00 0.00 0.00 99 1019.2
20260902094415 61 113 1.0 5.0 0.00 0.00 0.00 99 1019.3
20260902093915 61 135 0.0 3.0 0.00 0.00 0.00 99 1019.0
20260902093409 61 99 3.0 5.0 0.00 0.00 0.00 99 1019.0
20260902092909 61 287 0.0 2.0 0.00 0.00 0.00 99 1018.9
20260902092404 61 72 1.0 3.0 0.00 0.00 0.00 99 1019.0
20260902091859 61 166 1.0 3.0 0.00 0.00 0.00 99 1019.1
20260902091354 61 120 1.0 4.0 0.00 0.00 0.00 99 1018.9
20260902090851 61 157 1.0 2.0 0.00 0.00 0.00 99 1019.0
20260902090350 61 65 2.0 7.0 0.00 0.00 0.00 99 1018.8
20260902085849 61 119 0.0 3.0 0.00 0.00 0.00 99 1018.6
20260902085344 61 317 0.0 2.0 0.00 0.00 0.00 99 1018.9
20260902084839 61 147 0.0 2.0 0.00 0.00 0.00 99 1018.9
20260902084331 61 189 0.0 2.0 0.00 0.00 0.00 99 1018.7
20260902083826 61 342 0.0 2.0 0.00 0.00 0.00 99 1018.8
20260902083326 61 9 1.0 2.0 0.00 0.00 0.00 99 1018.8
20260902082821 61 342 0.0 1.0 0.00 0.00 0.00 99 1018.8
20260902082317 61 311 1.0 1.0 0.00 0.00 0.00 99 1018.8
20260902081813 61 342 0.0 2.0 0.00 0.00 0.00 99 1018.6
20260902081308 61 189 0.0 1.0 0.00 0.00 0.00 99 1018.5
20260902080803 61 60 0.0 2.0 0.00 0.00 0.00 99 1018.6
20260902080301 61 239 1.0 2.0 0.00 0.00 0.00 99 1018.5
20260902075759 61 33 0.0 3.0 0.00 0.00 0.00 99 1018.5
20260902075256 61 113 0.0 3.0 0.00 0.00 0.00 99 1018.6
20260902074756 61 18 0.0 3.0 0.00 0.00 0.00 99 1018.4
20260902074251 61 74 0.0 3.0 0.00 0.00 0.00 99 1018.6
20260902073746 61 319 1.0 2.0 0.00 0.00 0.00 99 1018.5
20260902073242 61 42 1.0 1.0 0.00 0.00 0.00 99 1018.4
20260902072738 61 196 1.0 2.0 0.00 0.00 0.00 99 1018.3
20260902072234 61 53 2.0 3.0 0.00 0.00 0.00 99 1018.5
20260902071730 61 217 0.0 1.0 0.00 0.00 0.00 99 1018.3
20260902071225 61 73 0.0 1.0 0.00 0.00 0.00 99 1018.4
20260902070721 61 9 0.0 2.0 0.00 0.00 0.00 99 1018.7
20260902070220 61 69 0.0 3.0 0.00 0.00 0.00 99 1018.7
20260902065720 61 81 0.0 2.0 0.00 0.00 0.00 99 1018.8
20260902065215 61 189 0.0 2.0 0.00 0.00 0.00 99 1018.8
20260902064711 61 245 1.0 1.0 0.00 0.00 0.00 99 1018.6
20260902064207 61 57 0.0 3.0 0.00 0.00 0.00 99 1018.7
20260902063702 61 189 0.0 2.0 0.00 0.00 0.00 99 1018.6
20260902063156 61 301 0.0 2.0 0.00 0.00 0.00 99 1018.6
20260902062655 61 101 0.0 1.0 0.00 0.00 0.00 99 1018.6
20260902062151 61 162 0.0 0.0 0.00 0.00 0.00 99 1018.6
20260902061649 61 150 0.0 2.0 0.00 0.00 0.00 99 1018.6
20260902061146 61 137 0.0 2.0 0.00 0.00 0.00 99 1018.6
20260902060642 61 355 0.0 1.0 0.00 0.00 0.00 99 1018.5
20260902060138 61 317 0.0 1.0 0.00 0.00 0.00 99 1018.6
20260902055634 61 329 0.0 2.0 0.00 0.00 0.00 99 1018.5
20260902055129 61 223 0.0 1.0 0.00 0.00 0.00 99 1018.4
20260902054624 61 280 0.0 2.0 0.00 0.00 0.00 99 1018.6
20260902054120 61 254 0.0 1.0 0.00 0.00 0.00 99 1018.5
20260902053615 61 171 1.0 1.0 0.00 0.00 0.00 99 1018.6
20260902053114 61 87 1.0 2.0 0.00 0.00 0.00 99 1018.7
20260902052609 61 27 0.0 3.0 0.00 0.00 0.00 99 1018.5
20260902052105 61 328 1.0 3.0 0.00 0.00 0.00 99 1018.2
20260902051604 61 203 0.0 0.0 0.00 0.00 0.00 99 1018.4
20260902051103 61 203 0.0 1.0 0.00 0.00 0.00 99 1018.3
20260902050558 61 27 0.0 2.0 0.00 0.00 0.00 99 1018.1
20260902050053 61 86 1.0 2.0 0.00 0.00 0.00 99 1018.2
20260902045548 61 150 0.0 2.0 0.00 0.00 0.00 99 1018.1
20260902045044 61 113 1.0 3.0 0.00 0.00 0.00 99 1017.9
20260902044539 61 132 0.0 1.0 0.00 0.00 0.00 99 1018.1
20260902044035 61 229 0.0 1.0 0.00 0.00 0.00 99 1018.1
20260902043530 61 100 0.0 0.0 0.00 0.00 0.00 99 1018.1
20260902043025 61 125 0.0 1.0 0.00 0.00 0.00 99 1018.3
20260902042524 61 93 1.0 3.0 0.00 0.00 0.00 99 1018.1
20260902042019 61 76 1.0 3.0 0.00 0.00 0.00 99 1018.0
20260902041514 61 322 0.0 2.0 0.00 0.00 0.00 99 1017.9
20260902041008 61 105 0.0 4.0 0.00 0.00 0.00 99 1017.8
20260902040503 61 189 0.0 2.0 0.00 0.00 0.00 99 1017.8
20260902040002 62 115 0.0 0.0 0.00 0.89 0.89 99 1017.7
20260902035456 61 115 0.0 0.0 0.00 0.89 0.89 99 1018.0
20260902034951 61 115 0.0 0.0 0.00 0.89 0.89 99 1017.9
20260902034445 61 115 0.0 1.0 0.00 0.89 0.89 99 1018.0
20260902033944 61 214 0.0 1.0 0.00 0.89 0.89 99 1018.0
20260902033438 61 189 0.0 1.0 0.00 0.89 0.89 99 1018.0
20260902032937 61 39 0.0 0.0 0.00 0.89 0.89 99 1018.2
20260902032432 61 9 0.0 3.0 0.00 0.89 0.89 99 1018.3
20260902031927 61 42 2.0 3.0 0.00 0.89 0.89 99 1017.9
20260902031422 61 235 0.0 2.0 0.00 0.89 0.89 99 1017.5
20260902030918 61 177 2.0 2.0 0.00 0.89 0.89 99 1017.3
20260902030413 61 115 0.0 2.0 0.00 0.89 0.89 99 1017.2
20260902025912 61 126 1.0 5.0 0.00 0.89 0.89 99 1017.2
20260902025407 61 93 0.0 2.0 0.00 0.89 0.89 99 1016.9
20260902024902 61 66 0.0 3.0 0.00 0.89 0.89 99 1017.1
20260902024357 61 224 0.0 2.0 0.00 0.89 0.89 99 1017.2
20260902023853 61 181 1.0 3.0 0.00 0.89 0.89 99 1017.2
20260902023348 61 39 1.0 2.0 0.00 0.89 0.89 99 1017.2
20260902022847 61 222 0.0 1.0 0.00 0.89 0.89 99 1017.3
20260902022342 61 107 1.0 3.0 0.00 0.89 0.89 99 1017.1
20260902021838 61 111 0.0 2.0 0.00 0.89 0.89 99 1017.4
20260902021333 61 175 0.0 1.0 0.00 0.89 0.89 99 1017.4
20260902020828 61 161 1.0 2.0 0.00 0.89 0.89 99 1017.3
20260902020325 61 175 0.0 1.0 0.00 0.89 0.89 99 1017.4
20260902015820 61 73 0.0 3.0 0.00 0.89 0.89 99 1017.4
20260902015316 61 162 0.0 1.0 0.00 0.89 0.89 99 1017.2
20260902014811 61 175 0.0 1.0 0.00 0.89 0.89 99 1017.3
20260902014308 61 92 0.0 0.0 0.00 0.89 0.89 99 1017.3
20260902013807 61 101 0.0 1.0 0.00 0.89 0.89 99 1017.2
20260902013302 61 122 0.0 2.0 0.00 0.89 0.89 99 1017.1
20260902012757 61 78 0.0 3.0 0.00 0.89 0.89 99 1017.2
20260902012253 61 305 0.0 1.0 0.00 0.89 0.89 99 1017.3
20260902011749 61 217 0.0 3.0 0.00 0.89 0.89 99 1017.0
20260902011248 61 83 0.0 2.0 0.00 0.89 0.89 99 1017.0
20260902010742 61 114 0.0 2.0 0.00 0.89 0.89 99 1017.1
20260902010238 61 31 1.0 4.0 0.00 0.89 0.89 99 1017.0
20260902005736 61 139 1.0 3.0 0.00 0.89 0.89 99 1016.7
20260902005232 61 87 0.0 3.0 0.00 0.89 0.89 99 1016.8
20260902004731 61 102 0.0 1.0 0.00 0.89 0.89 99 1016.6
20260902004227 61 125 0.0 1.0 0.00 0.89 0.89 99 1016.6
20260902003721 61 126 1.0 1.0 0.00 0.89 0.89 99 1016.8
20260902003217 61 96 1.0 3.0 0.00 0.89 0.89 99 1016.8
20260902002713 61 129 0.0 1.0 0.00 0.89 0.89 99 1016.7
20260902002212 61 229 0.0 0.0 0.00 0.89 0.89 99 1016.7
20260902001708 61 39 0.0 2.0 0.00 0.89 0.89 99 1016.6
20260902001208 61 49 0.0 3.0 0.00 0.89 0.89 99 1016.4
20260902000703 61 9 0.0 2.0 0.00 0.89 0.89 99 1016.2
20260902000158 61 81 0.0 2.0 0.00 0.89 0.89 99 1016.1
20260901235657 61 166 0.0 1.0 0.02 0.89 0.89 99 1016.1
20260901235152 61 61 0.0 1.0 0.00 0.89 0.89 99 1016.2
20260901234652 61 155 0.0 1.0 0.00 0.89 0.89 99 1016.3
20260901234147 61 103 3.0 4.0 0.00 0.89 0.89 99 1016.6
20260901233641 61 212 0.0 1.0 0.00 0.89 0.89 99 1016.5
20260901233138 61 111 0.0 3.0 0.00 0.89 0.89 99 1016.7
20260901232632 61 69 1.0 1.0 0.00 0.89 0.89 99 1016.5
20260901232127 61 39 0.0 3.0 0.00 0.89 0.89 99 1016.7
20260901231624 61 173 0.0 3.0 0.00 0.89 0.89 99 1016.5
20260901231120 61 151 0.0 4.0 0.02 0.89 0.89 99 1016.6
20260901230615 61 147 1.0 2.0 0.00 0.89 0.89 99 1016.5
20260901230109 61 105 1.0 2.0 0.00 0.89 0.89 99 1016.2
20260901225605 62 85 2.0 3.0 0.00 0.89 0.89 99 1016.2
20260901225104 62 102 1.0 3.0 0.00 0.89 0.89 99 1016.0